Regional Weather Roundup
Issued by NWS Green Bay, WI

Home | Current Version | Previous Version | Graphics & Text | Print | Product List | Glossary Off
Versions: 1 2 3 4 5 6 7 8 9 10 11 12 13 14 15 16 17 18 19 20 21 22 23 24 25 26 27 28 29 30 31 32 33 34 35 36 37 38 39 40 41 42 43 44 45 46 47 48 49 50

000
ASUS43 KGRB 032011
RWRGRB

NORTH-CENTRAL AND NORTHEAST WISCONSIN REGIONAL WEATHER ROUNDUP
NATIONAL WEATHER SERVICE GREEN BAY WI
300 PM CDT TUE MAY 03 2016

WIZ005-009-010>012-018-019-032100-
NORTH CENTRAL WISCONSIN

CITY           SKY/WX    TMP DP  RH WIND       PRES   REMARKS
IRONWOOD         N/A     46  45  93 S8        29.66F
MANITOWISH WTR RAIN      50  44  79 W17G25    29.70S
ARBOR VITAE    LGT RAIN  52  45  77 NW3       29.71R
EAGLE RIVER    LGT RAIN  50  41  71 W6        29.71R
LAND O LAKES   LGT RAIN  49  45  84 W6        29.71F
RHINELANDER    LGT RAIN  58  37  45 W23G29    29.71R
PHILLIPS       CLOUDY    58  36  43 W7        29.69S
ANTIGO         CLOUDY    61  36  39 W13G20    29.69F
TOMAHAWK       DRIZZLE   59  35  39 W16G23    29.70S
MERRILL        CLOUDY    64  34  32 W20G28    29.69F
$$

WIZ013-073-032100-
NORTHEAST WISCONSIN

CITY           SKY/WX    TMP DP  RH WIND       PRES   REMARKS
IRON MOUNTAIN  CLOUDY    60  38  43 NW10      29.66S
MARINETTE      NOT AVBL
OCONTO         CLOUDY    67  33  28 W13G21    29.68S
$$

WIZ017-030-035>037-045-032100-
CENTRAL WISCONSIN

CITY           SKY/WX    TMP DP  RH WIND       PRES   REMARKS
MEDFORD        CLOUDY    62  34  35 W21G28    29.70F
WAUSAU         CLOUDY    68  33  27 SW16G30   29.67F
MOSINEE        MOSUNNY   66  30  26 W22G31    29.72F
MARSHFIELD     PTSUNNY   68  32  26 W21G26    29.71F
WISC RAPIDS    CLOUDY    69  28  21 W16G26    29.73F
STEVENS POINT  CLOUDY    65  31  28 SW16G24   29.71F
WAUPACA        MOSUNNY   70  28  20 W9        29.72F
SHAWANO        CLOUDY    70  31  24 W12G23    29.69F
CLINTONVILLE   CLOUDY    68  30  24 W16       29.69F
WAUTOMA        CLOUDY    69  32  25 SW15G28   29.74F
$$

WIZ038-039-048-051-032100-
FOX VALLEY

CITY           SKY/WX    TMP DP  RH WIND       PRES   REMARKS
NWS GREEN BAY  CLOUDY    69  36  29 W13G25    29.70F
APPLETON       PTSUNNY   68  28  22 W14G25    29.71F
OSHKOSH        CLOUDY    67  33  28 W8G21     29.73F
FOND DU LAC    CLOUDY    68  35  29 SW18G24   29.75F
$$

WIZ022-050-052-032100-
EAST CENTRAL WISCONSIN

CITY           SKY/WX    TMP DP  RH WIND       PRES   REMARKS
EPHRAIM        CLOUDY    63  33  32 SW14      29.67S
STURGEON BAY   CLOUDY    66  34  30 SW16      29.70F
MANITOWOC      CLOUDY    68  32  26 MISG      29.72F
SHEBOYGAN      CLOUDY    68  36  30 W15G23    29.75F
$$

LMZ563-521-522-541>543-032100-
LAKESHORE

STATION/POSITION TIME  TEMP    WIND        PRES    VSBY  WAVE
                       AIR SEA DIR/SP/G                  HT/PER
                 (UTC) (F)     (DEG/KT/KT) (MB)    (MI)  (FT/S)
SHEBOYGAN LKSHOR 2000   65     250/ 19/ 22 1007.6F
KEWAUNEE LKSHORE 1900   67     250/ 14/ 18 1006.0F
ALGOMA MARINA    1915          260/ 15/ 20   N/A
NORTHPORT PIER   2000   65     230/  7/ 17 1004.4F
N MID LAKE BUOY  1950   43 39  190/ 17/ 21 1004.6F         3/ 4
CHAMBERS ISLAND  1900   62     200/  5/  9 1005.1
MENOMINEE LKSHOR 1900   67     230/ 14/ 20 1003.9F
$$



USA.gov is the U.S. government's official web portal to all federal, state and local government web resources and services.